Regional Weather Roundup
Issued by NWS New Orleans/Baton Rouge, LA

Home | Current Version | Previous Version | Graphics & Text | Print | Product List | Glossary On
Versions: 1 2 3 4 5 6 7 8 9 10 11 12 13 14 15 16 17 18 19 20 21 22 23 24 25 26 27 28 29 30 31 32 33 34 35 36 37 38 39 40 41 42 43 44 45 46 47 48 49 50
305
ASUS44 KLIX 291810
RWRLIX
NEW ORLEANS REGIONAL WEATHER ROUNDUP
NATIONAL WEATHER SERVICE NEW ORLEANS LA
100 PM CDT MON SEP 29 2014

NOTE: "FAIR" INDICATES FEW OR NO CLOUDS BELOW 12,000 FEET WITH NO
      SIGNIFICANT WEATHER AND/OR OBSTRUCTIONS TO VISIBILITY.
      SKY/WX - SKY CONDITION AND SIGNIFICANT WEATHER.
      TMP - AIR TEMPERATURE.     DP    - DEWPOINT TEMPERATURE.
      RH  - RELATIVE HUMIDITY.   PRES  - PRESSURE.
      HI  - HEAT INDEX.          WCI   - WIND CHILL INDEX.

*  THESE STATIONS ARE NOT NWS OR FAA STATIONS AND ARE NOT UNDER
   NWS QUALITY CONTROL.

LAZ038-040-048-061>063-065>067-069-291900-
SOUTHEAST LOUISIANA

CITY           SKY/WX    TMP DP  RH WIND       PRES   REMARKS
N.O. AUDUBON     N/A     80  73  80 MISG        N/A
6HR MIN TEMP:  75; 6HR MAX TEMP:  80;

N.O. INTL ARPT CLOUDY    79  71  76 NE7       29.92F
6HR MIN TEMP:  76; 6HR MAX TEMP:  79;

N.O. LAKEFRONT PTSUNNY   81  72  74 N8        29.92F
6HR MIN TEMP:  75; 6HR MAX TEMP:  80;

N.O. DOWNTOWN* CLOUDY    81  70  69 NE5       29.92F
6HR MIN TEMP:  75; 6HR MAX TEMP:  81;

SLIDELL        CLOUDY    82  72  71 N7        29.91F
6HR MIN TEMP:  74; 6HR MAX TEMP:  82;

BATON ROUGE    MOSUNNY   84  72  67 N8        29.91F
6HR MIN TEMP:  74; 6HR MAX TEMP:  85;

BOOTHVILLE     PTSUNNY   82  75  79 VRB7      29.90F
6HR MIN TEMP:  77; 6HR MAX TEMP:  83;

BELLE CHASSE   CLOUDY    80  71  74 NE7       29.91F HAZE
6HR MIN TEMP:  75; 6HR MAX TEMP:  80;

BOGALUSA*      CLOUDY    81  70  70 N7        29.94F
6HR MIN TEMP:  74; 6HR MAX TEMP:  82;

GALLIANO*      NOT AVBL
NEW ROADS*     MOCLDY    80  73  80 N9        29.93F
6HR MIN TEMP:  72; 6HR MAX TEMP:  80; 6HR PCP:  0.46;

GONZALES*        N/A     83  75  77 CALM      29.91F
6HR MIN TEMP:  74; 6HR MAX TEMP:  83;

HAMMOND*       CLOUDY    81  70  69 NE5       29.94F
HOUMA*         MOSUNNY  N/A N/A N/A NE9       29.90F
PORT FOURCHON* MOCLDY    82  73  74 NE9       29.93F

$$

MSZ070-080>082-291900-
SOUTHERN MISSISSIPPI

CITY           SKY/WX    TMP DP  RH WIND       PRES   REMARKS
MCCOMB           N/A     79  69  71 NE6       29.95F
GULFPORT       PTSUNNY   81  71  71 N7        29.90F
6HR MIN TEMP:  73; 6HR MAX TEMP:  83;

BILOXI         MOSUNNY   82  73  72 N7        29.90F
6HR MIN TEMP:  73; 6HR MAX TEMP:  82;

PASCAGOULA     CLOUDY    80  72  76 N10       29.90F
6HR MIN TEMP:  73; 6HR MAX TEMP:  82; 6HR PCP: TRACE;

STENNIS ARPT*  PTSUNNY   81  70  69 N8        29.91F

$$

COASTAL OBSERVATIONS
LAKE AND NEARSHORE STATIONS

STATION/POSITION TIME  TEMP    WIND        PRES    WAVE
                       AIR SEA DIR/SP/G            HT/PER
                 (UTC) (F)     (DEG/KT/KT) (MB)    (FT/S)
PASCAGOULA       1800   82      10/  8/ 11 1011.8
WAVELAND YACHT   1800   78      20/  6/  7 1012.3
GRAND ISLE       1800   81 79   40/  7/ 10 1013.1
SOUTHWEST PASS   1800   86 86   10/  8/  9 1012.5
NEW CANAL        1800   76 77   50/  6/  7 1013.6
SHELL BEACH      1800   76 73   20/  8/  9 1012.8

OFFSHORE STATIONS

STATION/POSITION TIME  TEMP    WIND        PRES    WAVE
                       AIR SEA DIR/SP/G            HT/PER
                 (UTC) (F)     (DEG/KT/KT) (MB)    (FT/S)
64 S DAUPHIN ISL 1748   79 83  350/ 10/ 12 1012.3    3/ 6

$$




USA.gov is the U.S. government's official web portal to all federal, state and local government web resources and services.